Time,TemperatureF,DewpointF,PressureIn,WindDirection,WindDirectionDegrees,WindSpeedMPH,WindSpeedGustMPH,Humidity,HourlyPrecipIn,Conditions,Clouds,dailyrainin,SoftwareType,DateUTC
2013-08-28 00:01:00,67.0,65.0,29.86,North,10,0.0,-999.0,93,-99.99,,,0.00,weatherlink.com 1.10,2013-08-28 04:01:00,
2013-08-28 00:16:00,66.7,65.0,29.86,North,10,0.0,-999.0,93,-99.99,,,0.00,weatherlink.com 1.10,2013-08-28 04:16:00,
2013-08-28 00:31:00,66.4,65.0,29.86,North,10,0.0,-999.0,94,-99.99,,,0.00,weatherlink.com 1.10,2013-08-28 04:31:00,
2013-08-28 00:46:00,66.2,65.0,29.86,North,10,0.0,-999.0,94,-99.99,,,0.00,weatherlink.com 1.10,2013-08-28 04:46:00,
2013-08-28 01:01:00,66.0,64.0,29.85,North,10,0.0,-999.0,94,-99.99,,,0.00,weatherlink.com 1.10,2013-08-28 05:01:00,
2013-08-28 01:16:00,65.7,64.0,29.85,North,10,0.0,-999.0,95,-99.99,,,0.00,weatherlink.com 1.10,2013-08-28 05:16:00,
2013-08-28 01:31:00,65.5,64.0,29.84,North,10,0.0,-999.0,95,-99.99,,,0.00,weatherlink.com 1.10,2013-08-28 05:31:00,
2013-08-28 01:47:00,65.3,64.0,29.84,North,10,0.0,-999.0,96,-99.99,,,0.00,weatherlink.com 1.10,2013-08-28 05:47:00,
2013-08-28 02:02:00,65.0,64.0,29.84,North,10,0.0,-999.0,96,-99.99,,,0.00,weatherlink.com 1.10,2013-08-28 06:02:00,
2013-08-28 02:17:00,64.8,64.0,29.83,North,10,0.0,-999.0,96,-99.99,,,0.00,weatherlink.com 1.10,2013-08-28 06:17:00,
2013-08-28 02:32:00,64.5,63.0,29.83,North,10,0.0,-999.0,96,-99.99,,,0.00,weatherlink.com 1.10,2013-08-28 06:32:00,
2013-08-28 02:47:00,64.5,63.0,29.83,North,10,0.0,-999.0,96,-99.99,,,0.00,weatherlink.com 1.10,2013-08-28 06:47:00,
2013-08-28 03:02:00,64.2,63.0,29.83,North,10,0.0,-999.0,96,-99.99,,,0.00,weatherlink.com 1.10,2013-08-28 07:02:00,
2013-08-28 03:17:00,63.9,63.0,29.83,North,10,0.0,-999.0,97,-99.99,,,0.00,weatherlink.com 1.10,2013-08-28 07:17:00,
2013-08-28 03:32:00,63.8,63.0,29.83,North,10,0.0,-999.0,97,-99.99,,,0.00,weatherlink.com 1.10,2013-08-28 07:32:00,
2013-08-28 03:47:00,63.6,63.0,29.83,North,10,0.0,-999.0,97,-99.99,,,0.00,weatherlink.com 1.10,2013-08-28 07:47:00,
2013-08-28 04:02:00,63.5,63.0,29.83,North,10,0.0,-999.0,97,-99.99,,,0.00,weatherlink.com 1.10,2013-08-28 08:02:00,
2013-08-28 04:17:00,63.3,63.0,29.83,North,10,0.0,-999.0,97,-99.99,,,0.00,weatherlink.com 1.10,2013-08-28 08:17:00,
2013-08-28 04:32:00,63.1,62.0,29.83,North,10,0.0,-999.0,97,-99.99,,,0.00,weatherlink.com 1.10,2013-08-28 08:32:00,
2013-08-28 04:47:00,63.1,62.0,29.83,North,10,0.0,-999.0,97,-99.99,,,0.00,weatherlink.com 1.10,2013-08-28 08:47:00,
2013-08-28 05:02:00,63.4,63.0,29.83,North,10,0.0,-999.0,97,-99.99,,,0.00,weatherlink.com 1.10,2013-08-28 09:02:00,
2013-08-28 05:17:00,63.5,62.0,29.83,North,10,0.0,-999.0,96,-99.99,,,0.00,weatherlink.com 1.10,2013-08-28 09:17:00,
2013-08-28 05:32:00,63.2,62.0,29.84,North,10,0.0,-999.0,96,-99.99,,,0.00,weatherlink.com 1.10,2013-08-28 09:32:00,
2013-08-28 05:47:00,63.0,62.0,29.84,North,10,0.0,-999.0,96,-99.99,,,0.00,weatherlink.com 1.10,2013-08-28 09:47:00,
2013-08-28 06:02:00,62.8,62.0,29.85,North,10,0.0,-999.0,97,-99.99,,,0.00,weatherlink.com 1.10,2013-08-28 10:02:00,
2013-08-28 06:18:00,62.7,62.0,29.86,North,10,0.0,-999.0,97,-99.99,,,0.00,weatherlink.com 1.10,2013-08-28 10:18:00,
2013-08-28 06:32:00,63.2,62.0,29.86,North,10,0.0,-999.0,95,-99.99,,,0.00,weatherlink.com 1.10,2013-08-28 10:32:00,
2013-08-28 06:47:00,63.1,62.0,29.86,North,10,0.0,-999.0,96,-99.99,,,0.00,weatherlink.com 1.10,2013-08-28 10:47:00,
2013-08-28 07:02:00,63.2,62.0,29.86,North,10,0.0,-999.0,96,-99.99,,,0.00,weatherlink.com 1.10,2013-08-28 11:02:00,
2013-08-28 07:17:00,63.5,63.0,29.86,North,10,0.0,-999.0,97,-99.99,,,0.00,weatherlink.com 1.10,2013-08-28 11:17:00,
2013-08-28 07:32:00,64.0,63.0,29.86,North,10,0.0,-999.0,97,-99.99,,,0.00,weatherlink.com 1.10,2013-08-28 11:32:00,
2013-08-28 07:47:00,64.8,64.0,29.86,North,10,0.0,-999.0,97,-99.99,,,0.00,weatherlink.com 1.10,2013-08-28 11:47:00,
2013-08-28 08:02:00,65.8,65.0,29.86,North,10,0.0,-999.0,97,-99.99,,,0.00,weatherlink.com 1.10,2013-08-28 12:02:00,
2013-08-28 08:17:00,66.5,66.0,29.86,North,10,0.0,-999.0,97,-99.99,,,0.00,weatherlink.com 1.10,2013-08-28 12:17:00,
2013-08-28 08:32:00,67.4,66.0,29.86,North,10,0.0,-999.0,96,-99.99,,,0.00,weatherlink.com 1.10,2013-08-28 12:32:00,
2013-08-28 08:47:00,68.6,67.0,29.86,North,10,2.0,-999.0,95,-99.99,,,0.00,weatherlink.com 1.10,2013-08-28 12:47:00,
2013-08-28 09:02:00,69.9,68.0,29.87,SW,223,1.0,-999.0,93,-99.99,,,0.00,weatherlink.com 1.10,2013-08-28 13:02:00,
2013-08-28 09:17:00,71.9,68.0,29.87,SW,223,0.0,-999.0,88,-99.99,,,0.00,weatherlink.com 1.10,2013-08-28 13:17:00,
2013-08-28 09:32:00,73.9,69.0,29.87,SW,223,0.0,-999.0,83,-99.99,,,0.00,weatherlink.com 1.10,2013-08-28 13:32:00,
2013-08-28 09:47:00,76.6,69.0,29.87,SW,223,0.0,-999.0,77,-99.99,,,0.00,weatherlink.com 1.10,2013-08-28 13:47:00,
2013-08-28 10:02:00,78.7,69.0,29.87,SSE,163,1.0,-999.0,71,-99.99,,,0.00,weatherlink.com 1.10,2013-08-28 14:02:00,
2013-08-28 10:17:00,79.2,69.0,29.87,SSW,194,0.0,-999.0,71,-99.99,,,0.00,weatherlink.com 1.10,2013-08-28 14:17:00,
2013-08-28 10:32:00,81.0,69.0,29.86,SSW,196,3.0,-999.0,67,-99.99,,,0.00,weatherlink.com 1.10,2013-08-28 14:32:00,
2013-08-28 10:47:00,81.4,70.0,29.86,SSW,197,0.0,-999.0,69,-99.99,,,0.00,weatherlink.com 1.10,2013-08-28 14:47:00,
2013-08-28 11:02:00,81.8,69.0,29.86,SSW,198,0.0,-999.0,65,-99.99,,,0.00,weatherlink.com 1.10,2013-08-28 15:02:00,
2013-08-28 11:18:00,83.8,69.0,29.86,SW,215,0.0,-999.0,61,-99.99,,,0.00,weatherlink.com 1.10,2013-08-28 15:18:00,
2013-08-28 11:33:00,83.0,69.0,29.85,SW,217,0.0,-999.0,62,-99.99,,,0.00,weatherlink.com 1.10,2013-08-28 15:33:00,
2013-08-28 11:48:00,83.5,68.0,29.86,SSW,213,0.0,-999.0,60,-99.99,,,0.00,weatherlink.com 1.10,2013-08-28 15:48:00,
2013-08-28 12:03:00,83.6,69.0,29.85,SSW,213,0.0,-999.0,61,-99.99,,,0.00,weatherlink.com 1.10,2013-08-28 16:03:00,
2013-08-28 12:18:00,84.1,70.0,29.85,SSW,213,0.0,-999.0,62,-99.99,,,0.00,weatherlink.com 1.10,2013-08-28 16:18:00,
2013-08-28 12:33:00,85.7,68.0,29.84,SSW,194,0.0,-999.0,56,-99.99,,,0.00,weatherlink.com 1.10,2013-08-28 16:33:00,
2013-08-28 12:48:00,86.5,69.0,29.84,South,190,0.0,-999.0,56,-99.99,,,0.00,weatherlink.com 1.10,2013-08-28 16:48:00,
2013-08-28 13:03:00,88.1,69.0,29.84,SSW,200,0.0,-999.0,54,-99.99,,,0.00,weatherlink.com 1.10,2013-08-28 17:03:00,
2013-08-28 13:18:00,88.8,69.0,29.84,SSW,212,0.0,-999.0,53,-99.99,,,0.00,weatherlink.com 1.10,2013-08-28 17:18:00,
2013-08-28 13:33:00,88.7,69.0,29.83,SW,223,1.0,-999.0,52,-99.99,,,0.00,weatherlink.com 1.10,2013-08-28 17:33:00,
2013-08-28 13:48:00,87.9,69.0,29.83,South,189,0.0,-999.0,53,-99.99,,,0.00,weatherlink.com 1.10,2013-08-28 17:48:00,
2013-08-28 14:03:00,88.6,68.0,29.82,WSW,242,0.0,-999.0,50,-99.99,,,0.00,weatherlink.com 1.10,2013-08-28 18:03:00,
2013-08-28 14:33:00,86.2,68.0,29.82,NE,36,0.0,-999.0,55,-99.99,,,0.00,weatherlink.com 1.10,2013-08-28 18:33:00,
2013-08-28 14:48:00,86.4,68.0,29.82,SSW,212,0.0,-999.0,55,-99.99,,,0.00,weatherlink.com 1.10,2013-08-28 18:48:00,
2013-08-28 15:03:00,86.3,69.0,29.81,SSW,212,0.0,-999.0,57,-99.99,,,0.00,weatherlink.com 1.10,2013-08-28 19:03:00,
2013-08-28 15:18:00,87.0,69.0,29.81,SW,219,0.0,-999.0,55,-99.99,,,0.00,weatherlink.com 1.10,2013-08-28 19:18:00,
2013-08-28 15:33:00,86.3,68.0,29.81,South,186,0.0,-999.0,55,-99.99,,,0.00,weatherlink.com 1.10,2013-08-28 19:33:00,
2013-08-28 15:48:00,85.9,70.0,29.80,SSW,196,0.0,-999.0,59,-99.99,,,0.00,weatherlink.com 1.10,2013-08-28 19:48:00,
2013-08-28 16:03:00,85.7,70.0,29.81,SSE,153,0.0,-999.0,59,-99.99,,,0.00,weatherlink.com 1.10,2013-08-28 20:03:00,
2013-08-28 16:18:00,84.5,70.0,29.82,SSE,154,0.0,-999.0,62,-99.99,,,0.00,weatherlink.com 1.10,2013-08-28 20:18:00,
2013-08-28 16:33:00,83.0,69.0,29.82,WSW,255,0.0,-999.0,62,-99.99,,,0.00,weatherlink.com 1.10,2013-08-28 20:33:00,
2013-08-28 16:48:00,81.6,68.0,29.82,SW,215,0.0,-999.0,64,-99.99,,,0.00,weatherlink.com 1.10,2013-08-28 20:48:00,
2013-08-28 17:03:00,80.6,68.0,29.83,SE,124,0.0,-999.0,65,-99.99,,,0.00,weatherlink.com 1.10,2013-08-28 21:03:00,
2013-08-28 17:18:00,79.8,68.0,29.83,SE,138,0.0,-999.0,67,-99.99,,,0.00,weatherlink.com 1.10,2013-08-28 21:18:00,
2013-08-28 17:33:00,79.1,68.0,29.83,WSW,257,0.0,-999.0,68,-99.99,,,0.00,weatherlink.com 1.10,2013-08-28 21:33:00,
2013-08-28 17:48:00,78.8,68.0,29.83,WSW,257,0.0,-999.0,69,-99.99,,,0.00,weatherlink.com 1.10,2013-08-28 21:48:00,
2013-08-28 18:03:00,78.3,66.0,29.84,West,260,0.0,-999.0,67,-99.99,,,0.00,weatherlink.com 1.10,2013-08-28 22:03:00,
2013-08-28 18:18:00,77.8,67.0,29.84,West,260,0.0,-999.0,69,-99.99,,,0.00,weatherlink.com 1.10,2013-08-28 22:18:00,
2013-08-28 18:33:00,77.1,67.0,29.85,West,260,0.0,-999.0,71,-99.99,,,0.00,weatherlink.com 1.10,2013-08-28 22:33:00,
2013-08-28 18:48:00,76.1,66.0,29.85,West,260,0.0,-999.0,71,-99.99,,,0.00,weatherlink.com 1.10,2013-08-28 22:48:00,
2013-08-28 19:03:00,75.4,66.0,29.85,West,260,0.0,-999.0,72,-99.99,,,0.00,weatherlink.com 1.10,2013-08-28 23:03:00,
2013-08-28 19:18:00,74.2,65.0,29.86,West,260,0.0,-999.0,74,-99.99,,,0.00,weatherlink.com 1.10,2013-08-28 23:18:00,
2013-08-28 19:33:00,73.4,65.0,29.86,West,260,0.0,-999.0,76,-99.99,,,0.00,weatherlink.com 1.10,2013-08-28 23:33:00,
2013-08-28 19:48:00,72.5,65.0,29.87,West,260,0.0,-999.0,77,-99.99,,,0.00,weatherlink.com 1.10,2013-08-28 23:48:00,
2013-08-28 20:03:00,71.5,65.0,29.88,West,260,0.0,-999.0,79,-99.99,,,0.00,weatherlink.com 1.10,2013-08-29 00:03:00,
2013-08-28 20:18:00,70.8,64.0,29.88,West,260,0.0,-999.0,80,-99.99,,,0.00,weatherlink.com 1.10,2013-08-29 00:18:00,
2013-08-28 20:33:00,70.8,65.0,29.89,West,260,0.0,-999.0,81,-99.99,,,0.00,weatherlink.com 1.10,2013-08-29 00:33:00,
2013-08-28 20:48:00,71.0,65.0,29.89,West,260,0.0,-999.0,81,-99.99,,,0.00,weatherlink.com 1.10,2013-08-29 00:48:00,
2013-08-28 21:03:00,70.0,65.0,29.89,West,260,0.0,-999.0,83,-99.99,,,0.00,weatherlink.com 1.10,2013-08-29 01:03:00,
2013-08-28 21:18:00,69.0,64.0,29.89,West,270,0.0,-999.0,85,-99.99,,,0.00,weatherlink.com 1.10,2013-08-29 01:18:00,
2013-08-28 21:33:00,68.9,64.0,29.89,West,271,0.0,-999.0,85,-99.99,,,0.00,weatherlink.com 1.10,2013-08-29 01:33:00,
2013-08-28 21:48:00,69.0,65.0,29.90,West,271,0.0,-999.0,86,-99.99,,,0.00,weatherlink.com 1.10,2013-08-29 01:48:00,
2013-08-28 22:03:00,68.4,64.0,29.91,West,271,0.0,-999.0,87,-99.99,,,0.00,weatherlink.com 1.10,2013-08-29 02:03:00,
2013-08-28 22:18:00,67.9,64.0,29.91,West,271,0.0,-999.0,88,-99.99,,,0.00,weatherlink.com 1.10,2013-08-29 02:18:00,
2013-08-28 22:34:00,67.9,65.0,29.92,West,271,0.0,-999.0,89,-99.99,,,0.00,weatherlink.com 1.10,2013-08-29 02:34:00,
2013-08-28 22:49:00,68.3,65.0,29.92,NNE,23,0.0,-999.0,89,-99.99,,,0.00,weatherlink.com 1.10,2013-08-29 02:49:00,
2013-08-28 23:04:00,68.2,65.0,29.94,NE,40,0.0,-999.0,89,-99.99,,,0.00,weatherlink.com 1.10,2013-08-29 03:04:00,
2013-08-28 23:19:00,67.8,65.0,29.94,NNE,22,0.0,-999.0,90,-99.99,,,0.00,weatherlink.com 1.10,2013-08-29 03:19:00,
2013-08-28 23:34:00,67.3,64.0,29.94,NNE,22,1.0,-999.0,90,-99.99,,,0.00,weatherlink.com 1.10,2013-08-29 03:34:00,
2013-08-28 23:49:00,67.0,64.0,29.94,NNE,32,0.0,-999.0,91,-99.99,,,0.00,weatherlink.com 1.10,2013-08-29 03:49:00,